Wetbulb
59.45 59.32 59.05 58.84 59.10 59.25 59.46 59.70 59.85 60.04 60.34 60.47 60.44 60.77 61.55 61.84 61.25 62.00 62.52 65.59 67.58 72.20 71.29 63.63 64.31 64.37 65.42 64.95 67.67 68.84 59.08 55.55 59.76 60.04 61.64 66.71 65.13 68.27 69.59 66.81 67.65 69.29 67.36 69.94 70.87
59.10 59.19 58.96 58.55 58.68 59.07 59.26 59.45 59.84 59.99 59.82 59.99 60.11 60.48 61.43 61.84 60.53 59.03 69.42 73.21 73.02 73.56 62.79 62.31 62.35 63.35 60.49 63.61 65.11 61.34 56.92 59.07 62.35 63.82 63.16 65.96 67.13 67.24 66.42 64.54 64.25 66.29 69.52 70.23 70.90
58.66 58.55 58.18 58.54 58.51 58.73 59.03 59.17 59.34 59.49 59.42 59.66 59.83 60.78 61.32 61.28 59.07 59.76 72.01 72.83 71.05 71.17 64.74 64.03 63.88 62.38 59.52 62.04 62.28 61.31 56.81 62.24 63.37 64.31 66.06 66.40 67.09 68.25 65.01 62.79 64.64 63.38 67.21 69.14 69.62
57.54 57.43 57.55 57.98 58.25 58.25 58.54 58.69 58.66 58.85 58.93 59.24 59.88 61.23 61.65 60.39 52.00 62.18 72.84 72.49 73.82 66.74 62.81 61.93 61.07 58.72 57.93 58.28 61.53 58.00 61.24 63.00 66.34 66.12 65.65 64.55 68.39 65.89 66.67 66.04 68.66 66.49 66.59 68.94 68.74
56.74 56.49 56.90 57.58 57.76 58.06 58.15 58.33 58.32 58.27 58.56 59.23 60.17 61.58 59.28 55.71 57.40 64.50 74.01 73.85 67.36 63.67 60.78 60.22 59.47 59.02 56.46 57.36 59.54 58.00 61.24 63.72 64.68 64.64 64.27 65.43 65.66 66.24 66.29 69.34 69.10 67.17 67.50 68.33 69.02
56.56 56.60 56.73 56.82 57.30 57.76 58.10 58.34 58.05 57.94 58.42 59.39 60.70 61.78 58.27 51.18 61.91 64.46 68.18 67.16 64.61 62.66 60.30 60.92 60.23 60.90 58.60 58.64 56.65 60.11 62.21 61.91 62.61 61.50 63.71 62.21 64.83 66.25 66.40 68.81 67.76 67.73 67.03 67.86 68.32
56.40 56.34 56.42 56.67 56.97 57.44 57.65 57.76 57.27 57.52 58.32 59.81 60.97 61.65 56.69 55.26 61.45 59.86 64.06 60.53 61.76 61.23 59.95 62.16 61.58 59.18 59.78 57.80 60.01 59.58 57.88 60.60 60.25 60.99 60.37 61.81 61.48 62.19 65.71 67.40 67.23 67.22 68.29 68.07 67.63
56.35 56.27 56.38 56.38 56.53 56.88 57.11 57.02 56.96 57.87 59.14 60.68 61.96 58.62 53.71 62.12 60.96 58.83 59.02 60.44 61.44 60.64 61.64 61.45 61.61 59.23 58.23 60.28 59.15 57.17 56.86 54.21 58.99 58.95 59.65 57.12 53.25 63.03 64.88 65.34 64.58 66.22 67.16 67.55 67.64
56.20 56.19 56.13 56.17 56.72 56.52 56.23 56.43 57.25 58.97 60.77 61.81 58.59 55.96 53.54 63.28 55.97 57.14 57.33 60.03 59.55 59.27 59.63 62.81 58.21 55.45 56.69 53.54 51.91 54.91 51.13 54.93 56.56 59.68 57.68 55.84 52.21 63.07 64.80 63.91 63.34 65.16 65.56 66.81 66.63
56.09 55.99 55.78 55.71 56.24 55.98 55.62 55.76 57.36 57.54 60.56 62.36 61.10 53.46 58.57 58.63 55.17 55.70 57.77 61.25 59.06 57.80 57.11 55.58 52.72 49.70 50.98 49.01 45.35 51.20 52.62 55.40 53.44 57.35 56.73 54.71 53.48 60.98 63.25 63.31 62.63 64.67 65.59 65.92 66.24
55.74 55.49 55.49 55.54 56.01 55.61 54.43 56.26 52.56 52.67 55.57 54.04 55.67 56.81 58.48 58.09 57.51 55.43 59.61 59.11 58.20 55.42 49.99 52.91 47.33 45.66 49.62 52.35 53.72 52.97 51.84 51.00 54.16 57.76 54.55 53.29 53.73 55.56 62.00 61.69 61.22 62.44 64.60 65.17 65.97
55.38 55.46 55.48 55.25 55.72 55.56 52.81 54.57 58.66 56.91 52.99 58.41 58.47 57.80 58.87 58.62 54.99 57.29 59.92 54.84 54.34 50.74 52.93 49.46 46.80 51.77 54.51 54.03 52.91 51.83 49.26 49.57 54.12 57.80 54.08 53.61 53.48 56.10 57.51 60.33 60.97 61.83 64.74 65.33 65.92
55.58 55.14 55.26 55.18 54.82 52.28 53.63 55.83 60.16 59.63 51.74 57.95 57.59 56.55 54.51 55.62 55.66 55.45 57.67 56.11 53.37 51.51 51.48 48.46 51.55 56.04 53.31 51.62 50.22 47.80 47.18 48.84 50.28 54.50 53.60 52.68 50.90 53.75 57.53 59.55 62.09 62.39 62.73 66.42 66.20
54.76 54.66 54.60 54.73 51.26 56.70 54.93 58.12 59.03 59.25 47.73 54.12 53.59 55.59 55.86 56.70 53.70 60.27 59.28 56.62 54.26 51.40 52.75 50.73 53.85 53.64 50.65 49.58 48.38 42.93 52.68 53.87 56.35 50.00 44.05 51.46 42.31 52.52 54.67 55.65 57.99 58.26 61.14 64.03 66.31
54.25 54.11 53.72 53.45 51.10 57.31 61.51 61.48 60.61 56.37 42.89 55.56 54.73 60.00 57.35 54.28 55.33 56.76 60.32 56.31 52.81 53.12 49.88 49.70 51.07 49.91 49.47 49.73 51.08 48.58 53.81 53.24 53.39 48.79 46.14 48.85 44.70 50.09 54.17 53.38 55.90 57.83 59.37 61.41 67.08
53.82 53.74 53.87 52.88 52.80 56.93 61.43 61.36 57.82 47.61 44.64 53.24 56.56 54.69 53.46 54.53 55.87 56.73 56.17 56.26 56.84 53.40 53.30 51.16 54.60 51.77 50.62 53.22 53.34 54.25 51.61 50.91 49.63 48.93 43.72 48.49 46.13 47.63 50.57 53.13 55.87 58.84 59.36 62.15 66.42
53.59 52.75 52.41 56.86 58.32 63.05 63.00 57.98 46.79 44.19 56.95 53.04 52.61 54.06 52.95 52.26 53.79 54.26 52.81 50.48 48.65 44.60 46.75 51.17 50.92 52.77 53.72 49.49 52.80 51.02 45.57 40.25 43.09 44.10 44.30 51.43 47.60 48.61 54.70 56.41 58.36 58.30 60.50 62.50 64.36
52.42 51.88 52.15 55.50 61.28 59.68 60.57 52.14 44.11 53.23 52.91 55.77 53.91 53.20 51.59 53.46 53.29 53.65 51.80 49.07 52.58 51.76 48.66 48.54 45.92 52.04 54.15 51.12 49.03 49.43 46.79 41.75 38.51 42.26 44.51 51.94 47.81 49.73 56.28 56.91 59.15 59.93 60.78 62.67 61.64
51.33 52.70 56.87 59.01 57.55 58.63 55.84 46.63 48.76 52.17 56.16 54.31 53.58 50.41 50.78 53.33 53.02 52.55 51.78 51.83 53.79 52.10 47.77 48.30 51.43 55.85 56.11 54.32 52.13 49.83 46.15 49.60 44.10 43.43 44.43 48.67 52.10 53.96 58.22 57.35 60.50 62.98 64.91 64.83 66.24
57.11 59.67 60.08 62.90 61.20 59.13 53.36 46.79 52.07 57.01 57.97 55.69 50.55 52.61 50.82 53.19 50.76 50.75 50.87 54.50 55.48 56.74 54.15 51.17 46.21 53.87 55.13 54.60 54.16 54.08 51.65 45.15 45.22 39.33 38.52 47.35 48.79 47.40 52.17 55.79 59.10 61.36 62.94 63.92 66.67
57.00 58.55 62.64 63.66 62.13 56.41 49.52 51.40 54.64 57.87 58.52 55.48 53.55 53.93 54.05 53.26 54.30 52.41 53.85 55.13 57.17 55.73 54.96 51.66 47.76 50.03 53.63 50.12 49.27 50.93 47.07 49.76 48.33 46.69 40.44 40.59 46.92 54.70 56.75 58.66 59.56 61.52 62.46 61.84 65.98
59.89 56.69 63.07 63.31 53.86 55.01 51.70 54.63 56.28 57.76 57.23 56.10 56.40 56.26 55.61 55.68 54.52 54.48 53.44 54.17 56.71 55.85 51.25 50.42 47.17 44.72 49.14 53.68 54.03 51.07 49.17 50.63 45.67 43.40 44.14 45.58 45.73 57.36 58.61 59.50 59.32 63.40 64.63 65.08 66.35
59.24 61.13 62.38 61.38 50.61 52.16 54.41 54.67 56.78 56.05 55.95 55.17 55.33 56.46 57.09 54.75 52.26 54.99 54.78 56.80 57.24 55.16 49.62 50.19 46.21 40.06 43.55 47.59 50.74 48.14 49.47 48.35 47.95 47.66 44.40 41.22 45.81 57.16 57.02 59.48 60.88 61.93 62.44 63.44 64.75
59.03 55.56 56.88 57.56 57.07 54.01 54.08 55.89 55.14 57.72 57.07 58.10 57.32 57.36 55.37 53.71 53.32 53.21 54.26 56.38 56.01 54.01 59.88 54.96 44.85 42.28 39.03 42.88 46.83 45.87 48.02 47.77 43.81 40.75 40.33 42.25 49.56 53.08 57.18 59.99 61.57 61.40 61.30 61.76 64.22
60.30 58.77 59.23 51.30 53.15 54.08 55.32 56.44 55.48 54.03 57.19 57.47 56.20 56.56 53.85 50.22 52.17 52.21 53.65 53.96 53.77 57.50 53.50 48.26 41.67 44.13 47.10 48.93 48.68 47.80 47.76 47.68 43.62 42.94 41.84 43.44 50.61 53.99 57.12 58.33 58.99 61.86 62.69 62.37 61.68
55.06 54.50 57.30 57.20 58.62 57.42 53.41 54.96 54.88 55.70 56.00 54.59 54.43 55.87 54.82 50.82 50.94 49.28 50.89 50.39 50.32 52.59 49.72 49.99 44.81 46.32 45.02 49.45 49.08 47.53 49.20 48.89 48.14 48.48 46.03 47.87 51.47 56.49 57.59 57.89 57.14 59.61 60.61 59.91 60.02
58.56 59.24 57.27 55.61 57.54 54.94 54.65 56.16 55.83 57.56 57.25 57.18 56.03 54.52 53.44 53.50 54.63 53.36 51.26 49.78 48.23 46.67 48.00 47.14 44.91 43.84 40.74 48.44 48.02 43.44 47.66 49.60 49.86 50.06 48.23 46.21 52.05 55.57 54.48 55.69 54.16 54.27 59.17 58.76 59.32
MSLP
1016.30 1016.07 1015.86 1015.62 1015.31 1014.97 1014.64 1014.33 1013.99 1013.71 1013.33 1013.02 1012.56 1012.20 1011.79 1011.30 1010.07 1009.23 1008.19 1006.17 1005.78 1005.45 1005.40 1004.71 1003.96 1003.17 1002.73 1003.01 1002.58 1003.04 1004.75 1005.35 1004.95 1005.01 1005.17 1005.02 1005.27 1005.80 1007.47 1009.10 1010.58 1011.70 1012.21 1010.41 1009.15
1016.26 1016.01 1015.81 1015.59 1015.30 1014.99 1014.63 1014.27 1013.93 1013.63 1013.27 1012.87 1012.52 1012.17 1011.72 1011.25 1010.26 1008.10 1006.02 1005.60 1005.49 1005.25 1005.14 1004.59 1003.45 1002.52 1002.82 1002.10 1002.39 1003.20 1004.17 1004.17 1003.92 1004.13 1004.50 1004.69 1004.92 1005.44 1007.23 1008.82 1010.66 1010.61 1011.13 1010.26 1010.02
1016.23 1015.97 1015.77 1015.51 1015.21 1014.91 1014.60 1014.25 1013.91 1013.56 1013.19 1012.77 1012.39 1012.02 1011.73 1011.31 1009.95 1006.28 1005.43 1005.54 1005.52 1005.16 1005.11 1004.41 1003.69 1003.21 1002.64 1001.99 1002.39 1002.77 1003.27 1003.40 1003.57 1003.60 1003.53 1003.96 1004.39 1004.99 1006.31 1007.55 1009.00 1009.59 1009.52 1009.53 1010.20
1016.24 1016.03 1015.74 1015.43 1015.13 1014.83 1014.50 1014.16 1013.85 1013.47 1013.12 1012.73 1012.29 1011.79 1011.31 1010.99 1008.56 1005.55 1005.28 1005.26 1005.31 1005.14 1005.11 1004.36 1003.56 1002.87 1002.15 1001.90 1001.81 1002.35 1002.74 1002.79 1002.97 1002.99 1003.00 1003.54 1003.82 1004.83 1005.37 1006.09 1007.14 1008.45 1008.60 1009.07 1009.78
1016.20 1015.92 1015.63 1015.29 1014.98 1014.61 1014.31 1013.99 1013.71 1013.38 1012.99 1012.67 1012.29 1011.85 1010.71 1009.90 1006.77 1005.12 1005.17 1005.25 1005.18 1005.15 1004.58 1004.03 1003.45 1002.62 1002.06 1001.80 1001.73 1002.02 1002.36 1002.25 1002.18 1002.35 1002.62 1002.83 1003.49 1004.02 1004.65 1005.47 1006.76 1007.75 1008.61 1008.82 1009.71
1016.08 1015.76 1015.43 1015.13 1014.80 1014.44 1014.09 1013.79 1013.51 1013.17 1012.81 1012.52 1012.20 1011.83 1011.21 1008.64 1004.74 1004.45 1004.85 1005.05 1004.88 1004.76 1004.13 1003.65 1003.30 1002.62 1002.39 1002.23 1001.82 1001.94 1002.08 1001.93 1001.88 1002.03 1002.06 1002.55 1003.32 1003.71 1004.39 1005.33 1006.39 1007.45 1008.18 1008.56 1008.68
1015.93 1015.58 1015.24 1014.93 1014.62 1014.26 1013.90 1013.56 1013.25 1012.89 1012.59 1012.35 1012.18 1011.63 1010.00 1006.70 1004.10 1004.07 1004.30 1004.36 1004.27 1004.21 1004.05 1003.72 1003.13 1003.23 1003.11 1002.81 1001.91 1001.87 1002.11 1002.03 1001.98 1001.94 1002.07 1002.37 1003.08 1003.47 1003.92 1004.53 1005.65 1006.26 1006.86 1007.29 1007.81
1015.70 1015.40 1015.06 1014.72 1014.40 1014.06 1013.68 1013.30 1012.94 1012.56 1012.27 1012.10 1011.98 1011.30 1008.57 1004.47 1004.20 1004.45 1004.06 1003.97 1003.87 1003.75 1003.75 1003.64 1003.40 1003.59 1003.52 1002.83 1002.38 1002.20 1001.99 1002.19 1001.97 1001.95 1001.99 1002.34 1002.86 1003.20 1003.65 1004.12 1004.79 1005.40 1005.95 1006.50 1007.14
1015.49 1015.16 1014.83 1014.47 1014.15 1013.79 1013.39 1012.94 1012.50 1012.10 1011.84 1011.81 1011.59 1010.59 1007.03 1004.12 1004.16 1003.82 1003.79 1003.77 1003.69 1003.81 1003.78 1003.65 1003.95 1004.31 1003.81 1003.65 1003.22 1002.50 1002.63 1002.16 1002.14 1001.83 1001.85 1002.22 1002.61 1002.77 1003.36 1003.66 1004.27 1004.88 1005.51 1006.20 1006.71
1015.20 1014.88 1014.59 1014.23 1013.89 1013.52 1012.97 1012.38 1011.85 1011.84 1011.15 1010.91 1010.17 1009.56 1006.09 1003.75 1003.25 1003.49 1003.39 1003.38 1003.61 1003.74 1003.94 1004.03 1004.38 1004.40 1003.98 1003.84 1003.38 1002.39 1002.63 1002.17 1001.83 1002.03 1001.83 1002.29 1002.44 1002.58 1003.07 1003.34 1003.63 1004.39 1005.07 1005.76 1006.35
1014.95 1014.62 1014.30 1013.99 1013.72 1013.47 1012.72 1011.58 1011.90 1011.30 1010.17 1008.18 1006.68 1005.61 1003.36 1002.73 1002.59 1003.21 1003.14 1003.34 1003.42 1003.70 1004.08 1004.03 1004.65 1004.11 1003.47 1003.02 1002.67 1002.31 1002.37 1002.14 1001.78 1001.56 1001.80 1002.22 1002.41 1002.34 1002.31 1002.67 1003.10 1003.81 1004.60 1005.12 1005.75
1014.64 1014.30 1014.00 1013.75 1013.56 1013.41 1013.34 1011.50 1007.85 1006.96 1006.88 1006.02 1005.31 1004.44 1002.93 1002.39 1002.69 1002.75 1002.86 1003.55 1003.77 1004.01 1003.93 1003.97 1003.86 1002.84 1002.33 1002.09 1002.14 1002.31 1002.42 1002.23 1001.67 1001.45 1001.78 1002.17 1002.35 1001.76 1001.88 1001.99 1002.32 1002.86 1003.70 1004.37 1005.19
1014.38 1014.07 1013.80 1013.58 1013.39 1013.30 1011.68 1009.25 1006.90 1006.58 1006.08 1004.10 1003.78 1003.42 1002.39 1002.36 1002.14 1002.16 1002.60 1003.17 1003.61 1003.78 1003.49 1003.41 1002.61 1001.90 1001.91 1001.97 1002.19 1002.27 1002.29 1002.05 1001.93 1001.88 1001.99 1002.40 1002.37 1001.71 1001.29 1001.18 1001.56 1001.83 1002.38 1003.29 1004.09
1014.04 1013.76 1013.57 1013.42 1013.65 1010.94 1009.74 1006.89 1006.95 1006.82 1006.38 1003.52 1003.12 1002.05 1001.81 1002.04 1001.80 1001.07 1002.06 1002.78 1002.94 1003.03 1002.82 1002.54 1001.59 1001.40 1001.48 1001.75 1001.96 1002.02 1001.59 1001.89 1002.28 1002.80 1003.13 1002.68 1003.48 1002.19 1001.60 1001.30 1001.21 1001.32 1001.65 1002.23 1003.17
1013.71 1013.47 1013.39 1013.59 1012.98 1010.34 1006.87 1005.85 1005.80 1006.11 1005.18 1002.18 1001.39 1000.33 1001.00 1001.81 1001.11 1001.29 1001.57 1002.21 1002.71 1002.68 1002.52 1002.03 1001.35 1001.15 1001.18 1001.42 1001.42 1001.66 1001.63 1002.24 1002.84 1003.54 1003.84 1003.05 1003.65 1002.44 1001.56 1001.46 1001.16 1000.56 1000.73 1001.06 1002.02
1013.34 1013.17 1013.16 1013.00 1012.41 1008.46 1006.45 1005.70 1005.83 1005.89 1003.07 1001.16 1000.81 1000.82 1001.32 1001.63 1001.41 1001.46 1001.73 1002.11 1002.15 1002.43 1002.08 1001.52 1001.00 1000.81 1000.75 1000.78 1000.89 1001.43 1002.06 1002.78 1003.59 1005.39 1005.59 1003.39 1003.24 1002.77 1001.81 1000.99 1000.39 1000.04 1000.05 1000.49 1001.65
1012.91 1012.81 1012.96 1011.34 1008.93 1007.11 1006.57 1006.12 1006.07 1004.38 1000.67 1000.69 1000.88 1000.90 1001.38 1001.51 1001.32 1001.49 1002.02 1002.38 1002.63 1002.64 1002.45 1001.54 1000.92 1000.51 1000.44 1000.75 1000.90 1001.46 1002.55 1003.77 1005.46 1007.06 1006.60 1003.13 1003.32 1001.64 1001.14 1000.40 1000.42 1000.46 1000.53 1000.86 1001.58
1012.39 1012.33 1011.48 1010.23 1007.94 1007.99 1006.85 1006.61 1005.69 1002.77 1001.40 999.63 1000.09 1000.67 1001.02 1000.84 1001.09 1001.24 1001.79 1002.10 1001.83 1001.85 1001.86 1001.16 1000.66 1000.10 1000.23 1000.52 1000.83 1001.47 1002.33 1003.56 1005.10 1006.73 1005.45 1003.75 1003.47 1002.50 1001.08 1000.63 1000.68 1000.76 1001.04 1001.53 1001.96
1012.14 1011.71 1010.23 1008.16 1008.06 1008.58 1007.91 1006.64 1004.29 1003.99 1002.11 999.12 999.69 1000.04 1000.27 1000.27 1000.49 1000.93 1001.12 1001.23 1001.12 1001.47 1001.93 1001.65 1000.63 999.89 1000.03 1000.01 1000.47 1000.92 1001.81 1002.48 1003.81 1004.25 1004.88 1004.59 1004.13 1002.53 1001.86 1002.27 1002.42 1002.55 1003.97 1004.00 1003.40
1011.52 1009.87 1007.67 1006.05 1006.85 1007.51 1007.24 1005.90 1003.56 1002.11 1000.63 999.08 999.19 999.20 999.75 1000.09 1000.25 1000.56 1000.74 1000.37 1001.03 1001.32 1001.70 1002.37 1002.12 1000.95 1000.35 1000.12 1000.30 1000.87 1001.49 1002.54 1003.88 1005.25 1005.53 1005.28 1005.18 1004.97 1004.55 1004.75 1004.87 1005.05 1006.97 1006.23 1005.42
1011.02 1008.54 1004.86 1005.29 1006.37 1006.79 1006.21 1004.36 1002.58 1001.01 999.99 999.68 999.44 999.39 999.72 1000.25 1000.40 1000.56 1000.91 1001.46 1001.36 1001.88 1002.25 1003.11 1003.31 1002.49 1001.58 1001.11 1001.05 1001.23 1001.77 1002.67 1003.97 1005.03 1005.86 1006.22 1006.56 1006.43 1006.25 1007.05 1007.19 1007.59 1007.36 1007.13 1006.97
1009.94 1007.11 1004.62 1004.91 1005.94 1005.68 1004.94 1003.37 1001.43 1000.19 999.81 999.64 999.47 999.78 1000.11 1000.56 1000.64 1000.53 1001.09 1002.01 1002.27 1002.66 1003.75 1004.34 1004.28 1004.10 1002.97 1001.76 1001.57 1001.69 1001.99 1002.63 1004.16 1005.12 1005.56 1005.97 1007.45 1006.85 1006.71 1007.25 1007.25 1008.44 1008.78 1008.14 1008.13
1009.89 1006.62 1004.53 1004.65 1005.06 1004.72 1003.71 1002.53 1001.45 1000.53 1000.08 999.92 999.87 1000.00 1000.37 1000.87 1001.15 1001.65 1002.22 1002.75 1002.95 1003.83 1004.89 1005.21 1005.30 1005.69 1004.35 1003.01 1002.57 1002.95 1002.89 1003.33 1003.66 1004.32 1005.93 1006.85 1007.71 1006.64 1006.37 1007.67 1009.08 1009.52 1009.95 1009.74 1009.45
1009.98 1006.59 1005.08 1004.81 1004.59 1004.27 1003.32 1002.09 1001.02 1000.83 1000.81 1000.43 1000.62 1000.74 1001.18 1001.60 1001.63 1001.90 1002.44 1003.11 1003.55 1004.38 1005.07 1005.46 1006.12 1006.68 1006.44 1005.67 1004.95 1004.47 1003.96 1003.99 1004.57 1005.46 1006.33 1007.26 1007.56 1007.77 1007.88 1008.70 1009.35 1009.89 1010.18 1010.13 1009.83
1009.24 1006.99 1005.98 1005.05 1004.43 1003.84 1002.94 1001.95 1000.92 1000.87 1001.03 1001.31 1001.50 1001.89 1002.26 1002.81 1002.91 1003.02 1002.97 1003.47 1004.26 1004.86 1005.33 1006.06 1006.85 1006.93 1006.69 1005.92 1005.49 1005.10 1004.62 1004.40 1004.72 1005.24 1006.18 1006.96 1008.37 1008.69 1008.87 1009.03 1009.40 1009.68 1009.85 1010.02 1010.03
1010.07 1009.00 1007.16 1005.75 1003.97 1003.34 1002.54 1002.14 1001.61 1001.45 1001.52 1002.08 1002.64 1002.75 1003.13 1003.97 1004.60 1004.59 1004.38 1004.74 1004.88 1005.40 1005.54 1006.12 1007.02 1007.46 1007.52 1006.85 1006.12 1005.38 1004.67 1004.39 1004.63 1005.17 1005.93 1006.89 1008.51 1008.77 1008.80 1009.03 1009.43 1009.79 1009.97 1010.25 1010.39
1011.30 1009.79 1008.61 1006.21 1004.88 1003.85 1003.28 1002.46 1002.46 1002.57 1002.75 1002.89 1003.46 1003.93 1004.58 1005.14 1005.09 1005.14 1005.09 1005.18 1005.40 1005.63 1005.95 1006.53 1007.43 1008.49 1008.46 1007.74 1006.97 1006.10 1004.94 1004.77 1005.18 1005.77 1006.60 1007.77 1008.67 1008.88 1009.26 1009.51 1009.80 1010.03 1010.11 1010.31 1010.50
Wind_Speed
12 12 12 12 12 13 13 13 14 14 15 15 17 16 16 17 21 4 5 2 4 5 6 10 15 18 16 8 4 3 5 2 4 5 5 3 3 9 17 15 10 10 8 8 20
12 12 12 12 13 13 13 14 15 15 15 16 16 16 16 17 6 8 4 3 5 3 5 10 19 19 5 7 4 4 4 2 8 6 8 5 2 6 11 15 11 18 12 19 13
13 13 13 13 13 13 14 14 15 15 16 16 17 16 15 14 5 4 6 4 6 3 6 13 15 19 17 4 6 4 4 6 9 5 1 6 2 6 7 3 12 17 18 9 21
13 13 14 13 13 14 14 14 15 15 16 16 17 17 18 4 3 3 8 8 4 6 6 10 12 12 7 7 7 8 5 2 1 3 1 6 2 9 7 6 13 18 16 10 24
14 14 14 14 14 14 15 15 15 15 16 15 16 15 8 3 10 6 7 6 3 4 8 14 16 8 9 6 8 8 3 4 7 8 6 8 6 3 7 17 17 13 13 8 15
14 15 15 15 15 15 15 14 15 16 16 15 14 17 3 5 4 12 9 7 7 7 10 12 10 10 7 10 4 3 2 2 3 2 3 5 7 5 5 23 20 17 17 14 16
15 15 15 15 15 15 16 15 17 17 16 14 12 6 5 14 7 1 9 6 8 10 10 8 11 8 10 9 3 7 6 5 3 1 2 6 2 5 9 12 20 17 18 12 10
15 15 15 15 15 15 15 16 18 18 15 13 7 4 9 9 14 10 8 8 8 8 7 8 10 9 7 10 7 8 6 5 6 5 4 7 5 6 8 11 11 13 12 13 12
16 15 15 15 14 14 15 17 19 18 13 10 4 4 9 2 7 7 8 8 8 7 8 9 3 7 11 8 8 7 4 3 5 7 4 3 6 9 10 9 9 14 10 11 8
16 15 15 15 13 14 17 18 12 14 6 8 8 6 8 8 6 8 11 9 7 8 7 5 4 6 7 3 6 4 4 9 3 7 5 2 9 10 13 10 10 15 14 12 11
16 15 14 14 11 11 11 1 0 1 5 11 10 6 6 4 9 8 10 6 6 5 5 8 4 9 14 11 2 6 4 5 5 5 5 7 8 7 14 12 9 11 15 15 14
16 14 13 12 9 7 4 5 10 8 7 20 17 16 15 8 5 7 8 5 7 8 8 5 11 15 12 6 6 6 6 7 8 3 4 5 9 10 9 11 11 11 18 17 14
14 13 11 10 8 4 6 11 11 17 3 8 15 9 5 3 9 11 12 9 8 8 10 9 12 9 3 8 6 6 8 7 7 3 7 5 10 8 5 5 13 9 12 19 22
15 13 10 6 3 4 6 11 15 12 4 4 8 8 8 7 8 12 10 8 7 10 9 8 11 6 5 3 5 8 7 5 2 3 5 3 5 3 7 7 7 9 11 16 19
15 12 8 6 8 5 6 10 11 2 3 13 10 6 9 8 2 7 10 5 10 11 4 13 7 5 3 6 6 9 6 5 3 6 6 12 3 7 7 6 7 5 12 11 21
14 9 4 4 5 13 13 6 2 1 7 10 7 7 6 7 10 6 4 2 7 9 12 8 7 3 6 7 4 5 6 8 4 7 6 14 4 5 5 6 4 1 6 10 19
11 8 7 8 4 10 12 2 1 5 9 12 8 9 9 10 12 8 7 7 7 4 7 10 12 8 4 3 9 4 3 4 5 5 10 14 6 8 6 4 7 6 7 8 11
9 5 12 8 8 11 6 0 4 11 6 10 12 11 11 11 9 8 9 8 12 11 6 4 5 11 8 7 7 8 8 6 1 5 9 2 3 4 5 7 5 7 7 8 8
6 4 5 8 13 4 2 3 4 5 14 8 15 11 10 10 8 8 11 11 10 3 5 7 4 7 6 1 3 7 3 6 2 4 5 4 7 8 17 11 16 21 29 16 20
3 3 6 7 11 4 1 4 6 6 11 13 2 9 5 3 6 7 7 2 7 7 6 7 6 6 8 3 4 4 4 8 6 2 5 2 3 2 6 11 14 18 12 20 19
3 3 7 13 9 2 4 6 11 18 6 7 12 8 10 7 10 2 8 13 9 8 8 9 6 11 6 3 4 5 3 2 3 4 2 1 4 5 6 13 15 14 7 9 16
4 4 8 8 3 4 6 6 5 8 3 5 6 6 9 15 10 1 7 6 8 9 5 5 2 6 10 12 7 7 4 7 6 7 3 3 4 3 7 10 17 16 0 9 13
4 4 6 6 4 7 9 17 12 6 6 4 4 6 8 8 5 11 6 7 7 5 3 5 4 5 13 10 12 7 9 8 6 5 2 4 5 6 3 8 5 13 14 13 14
3 2 2 3 6 11 13 12 5 3 6 8 6 8 8 7 2 1 5 5 9 6 6 3 1 5 6 8 5 9 12 9 5 4 3 4 5 7 10 13 11 10 11 9 6
3 4 5 4 6 12 14 8 5 5 4 6 8 4 7 5 9 7 11 9 9 6 4 3 2 5 8 10 8 9 11 9 5 5 2 4 13 7 9 11 9 7 8 8 8
5 5 6 7 11 2 4 5 10 10 4 6 7 8 8 8 7 8 8 9 4 6 3 3 3 8 7 11 11 9 9 6 5 5 5 7 10 8 7 8 9 7 7 8 7
5 6 3 7 8 4 6 3 7 9 8 8 9 7 12 10 8 6 4 4 6 4 2 2 2 4 5 8 10 8 5 7 7 8 7 7 6 8 7 8 7 8 7 7 6
Wind_Direction
343 342 341 337 335 333 331 328 325 327 324 323 323 323 325 324 309 188 250 230 228 317 311 275 273 269 268 249 105 125 67 347 148 100 120 155 78 74 87 95 76 120 234 287 127
341 339 338 335 332 331 328 325 324 325 323 322 322 322 325 331 293 266 233 191 272 335 304 308 311 323 256 184 136 84 117 71 69 95 122 114 180 110 114 123 108 134 209 247 161
339 337 335 333 330 328 325 322 321 321 321 320 321 321 320 321 290 230 173 215 269 275 271 292 293 294 290 214 154 154 56 49 75 55 319 129 108 109 138 138 165 172 195 217 149
339 333 330 329 327 324 321 319 318 318 317 318 320 321 315 255 338 89 185 203 231 299 284 279 279 287 277 178 123 100 100 73 181 118 62 94 226 144 164 167 152 164 200 181 153
335 330 327 326 324 321 318 317 316 314 313 315 320 325 342 244 250 163 192 234 221 251 266 285 301 335 358 355 95 89 148 187 185 187 147 167 164 96 123 126 153 156 180 200 174
333 328 324 322 320 317 315 315 312 310 309 313 320 316 239 253 236 165 190 182 247 223 270 279 290 319 312 333 35 116 285 119 19 3 127 77 128 102 134 137 155 163 187 216 170
330 326 322 319 316 314 312 310 308 306 305 307 314 303 269 240 303 143 189 224 217 242 266 304 348 3 325 315 41 267 191 236 132 160 114 123 96 170 157 138 164 175 175 165 155
328 324 320 315 313 312 308 304 302 299 298 299 293 275 254 246 232 254 257 244 237 251 270 307 6 335 294 294 302 259 284 165 176 211 167 149 245 187 176 154 166 156 163 155 162
326 322 318 313 310 308 305 300 296 291 283 271 257 228 264 193 210 224 263 238 191 243 284 271 44 273 295 279 288 254 230 281 153 170 184 14 287 199 185 172 181 160 154 153 163
326 321 317 312 310 309 306 286 286 310 227 224 257 275 268 239 182 189 239 247 230 202 228 211 230 239 277 256 251 44 100 254 123 200 124 312 292 133 185 180 192 166 155 159 167
325 320 315 312 309 319 332 285 243 282 251 203 195 235 163 179 134 200 206 227 281 265 239 221 192 241 250 252 283 32 339 321 296 182 143 215 249 246 184 192 189 161 162 166 168
324 317 312 310 307 321 292 251 260 329 280 221 250 240 271 137 169 203 165 194 212 240 238 275 222 242 255 301 53 35 315 293 276 199 153 265 271 269 196 202 178 175 171 170 169
320 316 312 308 328 278 234 244 299 324 274 245 200 241 214 223 251 191 163 209 252 245 249 225 250 247 19 331 1 285 228 253 256 354 327 293 278 258 175 97 169 188 173 172 170
320 314 306 306 301 230 228 240 241 252 309 183 193 232 205 207 252 219 173 191 232 244 267 240 267 263 178 218 233 267 271 204 315 36 260 12 290 138 152 205 194 196 187 171 167
317 308 289 237 318 254 314 220 210 180 305 142 181 197 167 181 120 161 172 180 257 277 276 264 245 241 288 265 252 244 357 2 321 301 336 289 134 248 171 228 232 223 187 181 165
316 300 261 203 222 246 295 291 11 289 243 168 133 177 166 222 256 134 148 228 269 275 290 250 286 286 214 248 210 292 320 315 333 39 337 273 125 250 184 183 128 72 178 161 156
307 272 217 303 226 328 263 307 258 234 157 147 165 158 202 192 241 147 174 197 227 235 254 258 234 224 200 307 299 196 275 318 57 45 230 275 310 211 164 113 148 130 89 118 139
316 209 225 245 295 330 310 235 268 327 294 178 145 164 199 196 208 168 190 220 236 235 274 269 210 186 187 191 223 225 193 165 221 198 242 295 9 223 136 147 124 118 110 134 153
321 189 245 234 228 233 304 213 236 21 293 148 153 167 211 221 158 175 206 217 202 75 57 11 5 109 151 182 172 307 351 245 2 299 51 64 343 33 58 42 46 53 20 19 47
269 231 218 205 169 224 245 242 273 238 294 344 225 183 221 200 151 190 199 129 88 66 54 331 337 331 155 164 276 226 263 6 349 348 355 118 183 233 59 65 46 47 24 354 17
245 248 151 145 171 243 230 247 291 294 22 318 347 345 326 155 289 281 44 19 40 52 42 26 19 303 344 201 269 324 229 258 116 115 162 81 109 170 79 62 55 36 63 72 359
276 273 147 167 155 216 237 254 259 302 126 290 310 320 350 161 244 98 95 78 38 33 27 1 249 303 288 297 304 355 298 175 138 285 229 153 300 35 124 100 101 137 147 70 37
265 277 162 181 220 240 249 255 262 346 355 281 321 344 43 14 46 97 102 100 67 67 83 331 352 357 335 347 6 10 347 358 354 45 33 88 236 205 220 144 116 79 58 48 36
282 251 154 197 259 278 284 295 189 220 324 1 14 13 11 345 354 6 102 125 101 109 125 78 317 195 223 257 337 344 341 348 29 52 323 134 217 10 28 71 72 89 96 101 71
230 318 15 224 239 243 269 305 210 158 200 22 354 355 316 16 0 27 13 97 54 144 124 111 245 309 326 331 330 309 301 301 300 277 65 318 107 69 76 74 76 108 93 74 62
5 3 334 280 322 282 17 317 325 21 92 103 18 317 60 57 47 26 27 30 76 220 127 345 304 13 330 310 304 308 300 318 338 313 307 87 92 105 77 71 55 69 90 84 74
5 325 275 288 314 307 307 259 21 37 46 58 40 18 45 18 354 347 341 323 306 328 308 160 75 40 287 319 339 331 288 34 74 53 63 64 116 87 62 65 56 17 86 78 78